Flag for Canada Weather past 2 weeks in Brantford, Ontario, Canada

30 °F

Passing clouds.

Feels Like: 25 °F
Forecast: 25 / 47 °F
Wind: 5 mph from West

Location: Hamilton Airport

Current Time: Nov 24, 2015 at 11:52:23 PM

Latest Report: Nov 24, 2015 at 11:00 PM

Visibility: 12 mi

Pressure: 30.48 "Hg

Humidity: 93%

Dew point: 28 °F

Location of BrantfordLocation

Historic Weather in Brantford — Graph


Brantford temperature yesterday

Maximum temperature yesterday: 34 °F (at 12:00 PM)
Minimum temperature yesterday: 18 °F (at 5:00 AM)
Average temperature yesterday: 27 °F

Past Weeks' High & Low Weather Summary

High61 °F (Nov 18, 1:00 PM)100% (Nov 10, 1:00 AM)30.47 "Hg (Nov 10, 1:00 AM)
Low18 °F (Nov 23, 5:00 AM)39% (Nov 19, 11:00 PM)29.34 "Hg (Nov 12, 12:00 PM)
Average42 °F78%30.04 "Hg
* Reported Nov 9 10:00 PM — Nov 24 10:00 PM, Brantford, Weather by CustomWeather, © 2015

Note: Actual official high and low records may vary slightly from our data, if they occured in-between our weather recording intervals... More about our weather records


Brantford weather history for previous 24 hours

Time TempWeatherWind HumidityBarometerVisibility
10:00 PM
Tue, Nov 24
32 °FPassing clouds.2 mph93%30.47 "Hg10 mi
9:00 PM32 °FPassing clouds.6 mph93%30.46 "Hg10 mi
8:00 PM34 °FPassing clouds.6 mph87%30.45 "Hg10 mi
7:00 PM32 °FPartly cloudy.5 mph93%30.43 "Hg12 mi
6:00 PM36 °FPassing clouds.6 mph81%30.42 "Hg15 mi
5:00 PM37 °FPassing clouds.7 mph75%30.39 "Hg15 mi
4:00 PM39 °FScattered clouds.12 mph65%30.38 "Hg15 mi
3:00 PM41 °FScattered clouds.12 mph66%30.35 "Hg15 mi
2:00 PM41 °FBroken clouds.14 mph70%30.33 "Hg15 mi
1:00 PM41 °FScattered clouds.12 mph70%30.33 "Hg15 mi
12:00 PM37 °FPartly sunny.9 mph81%30.32 "Hg12 mi
11:00 AM36 °FPartly sunny.8 mph81%30.32 "Hg10 mi
10:00 AM34 °FOvercast.8 mph87%30.30 "Hg8 mi
9:00 AM32 °FPartly sunny.8 mph87%30.28 "Hg7 mi
8:00 AM28 °FScattered clouds.6 mph93%30.27 "Hg7 mi
7:00 AM28 °FPassing clouds.6 mph93%30.24 "Hg8 mi
6:00 AM30 °FLight snow. Overcast.8 mph93%30.21 "Hg8 mi
5:00 AM32 °FLight snow. Overcast.10 mph80%30.19 "Hg10 mi
4:00 AM32 °FLight snow. Overcast.8 mph80%30.17 "Hg10 mi
3:00 AM30 °FLight snow. Mostly cloudy.8 mph86%30.15 "Hg10 mi
2:00 AM30 °FLight snow. Overcast.8 mph93%30.14 "Hg10 mi
1:00 AM32 °FLight snow. Overcast.6 mph93%30.12 "Hg8 mi
12:00 AM30 °FLight snow. Overcast.5 mph100%30.13 "Hg8 mi
11:00 PM
Mon, Nov 23
30 °FLight snow. Overcast.3 mph100%30.12 "Hg8 mi
Weather by CustomWeather, © 2015

See weather overviewHow to use our weather pages